Kosmos-981

operational
NORAD ID: 10588 Int'l Des: 1978-005 Owner: GUKOSR Country: SU
LEOCIRCULAR

About Kosmos-981

Description loading...

Live Position

Loading 3D Globe...

Upcoming Passes

Altitude History

Altitude vs Time

uPlot chart will show altitude changes over time

Two-Line Element Set

1 10588U 78005F 26062.65953541 -.00000001 00000-0 10470-3 0 9993
2 10588 74.0276 265.1734 0020662 293.3141 135.0491 12.46465504187238
Epoch: Mar 3, 2026 • Age: 41 hours

Current Status

Altitude 1487.1 km
Velocity 7.12 km/s
Sub-Earth Point 33.86°N, 137.99°W
Launch Date Jan 10, 1978
Age 48.1 years
Type other

Technical Details

Classification Payload
Mass 60.00 kg
Dry Mass 60.00 kg
Total Mass 60.00 kg
Length 0.80 m
Diameter 0.80 m
Span 0.80 m
Shape Poly
Manufacturer NPOPM
Bus Type Strela-1 11F625
Phase Status In Orbit
Owner/State GUKOSR/SU

Large Constellations

Loading constellations...